QPF
0.00 0.00 0.00 0.01 0.02 0.03 0.03 0.04 0.05 0.05 0.06 0.08 0.08 0.08 0.08 0.08 0.08 0.07 0.05 0.04 0.03 0.03 0.02 0.03 0.02 0.02 0.02 0.03 0.02 0.03 0.02 0.02 0.02 0.01 0.00 0.00 0.00 0.00 0.00 0.00 0.00 0.00 0.00
0.00 0.00 0.00 0.00 0.01 0.02 0.02 0.03 0.03 0.04 0.04 0.05 0.07 0.09 0.10 0.09 0.09 0.07 0.05 0.04 0.03 0.03 0.03 0.02 0.02 0.02 0.02 0.02 0.02 0.03 0.02 0.01 0.01 0.01 0.01 0.00 0.00 0.00 0.00 0.00 0.00 0.00 0.00
0.00 0.00 0.00 0.01 0.01 0.01 0.02 0.02 0.02 0.03 0.03 0.04 0.06 0.07 0.07 0.06 0.06 0.06 0.05 0.05 0.03 0.03 0.02 0.02 0.02 0.02 0.03 0.02 0.02 0.02 0.01 0.01 0.01 0.02 0.02 0.01 0.00 0.00 0.00 0.00 0.00 0.00 0.00
0.00 0.00 0.00 0.01 0.01 0.01 0.03 0.04 0.05 0.04 0.03 0.03 0.03 0.05 0.05 0.06 0.06 0.07 0.07 0.07 0.04 0.03 0.03 0.03 0.02 0.03 0.03 0.02 0.01 0.02 0.02 0.02 0.02 0.02 0.02 0.02 0.02 0.02 0.01 0.00 0.00 0.00 0.00
0.00 0.00 0.00 0.01 0.01 0.02 0.02 0.03 0.04 0.03 0.03 0.03 0.03 0.03 0.03 0.05 0.05 0.06 0.06 0.06 0.03 0.02 0.02 0.02 0.02 0.02 0.02 0.01 0.01 0.02 0.02 0.02 0.02 0.02 0.02 0.02 0.02 0.02 0.02 0.01 0.01 0.00 0.00
0.00 0.00 0.00 0.00 0.01 0.01 0.02 0.02 0.03 0.04 0.04 0.03 0.03 0.02 0.02 0.02 0.03 0.03 0.03 0.03 0.02 0.02 0.02 0.01 0.01 0.01 0.01 0.01 0.01 0.01 0.01 0.01 0.01 0.02 0.02 0.01 0.01 0.01 0.02 0.02 0.01 0.01 0.01
0.00 0.00 0.00 0.00 0.00 0.01 0.01 0.01 0.01 0.02 0.03 0.03 0.02 0.02 0.02 0.02 0.02 0.02 0.02 0.02 0.01 0.01 0.01 0.01 0.01 0.01 0.01 0.01 0.00 0.00 0.00 0.01 0.01 0.01 0.01 0.01 0.01 0.01 0.01 0.02 0.02 0.01 0.01
0.00 0.00 0.00 0.00 0.00 0.00 0.01 0.01 0.01 0.01 0.01 0.02 0.02 0.02 0.02 0.02 0.01 0.01 0.01 0.01 0.01 0.01 0.01 0.00 0.00 0.00 0.00 0.00 0.00 0.00 0.00 0.00 0.00 0.00 0.01 0.01 0.01 0.01 0.01 0.01 0.01 0.01 0.01
0.00 0.00 0.00 0.00 0.00 0.00 0.00 0.01 0.01 0.01 0.01 0.01 0.01 0.01 0.01 0.01 0.01 0.01 0.01 0.01 0.00 0.00 0.01 0.00 0.00 0.00 0.00 0.00 0.00 0.00 0.00 0.00 0.00 0.00 0.00 0.00 0.00 0.00 0.00 0.00 0.01 0.01 0.01
0.00 0.00 0.00 0.00 0.00 0.00 0.00 0.00 0.00 0.00 0.00 0.00 0.00 0.00 0.00 0.00 0.00 0.00 0.00 0.00 0.00 0.00 0.00 0.00 0.00 0.00 0.00 0.00 0.00 0.00 0.00 0.00 0.00 0.00 0.00 0.00 0.00 0.00 0.00 0.00 0.00 0.01 0.01
0.00 0.00 0.00 0.00 0.00 0.00 0.00 0.00 0.00 0.00 0.00 0.00 0.00 0.00 0.00 0.00 0.00 0.00 0.00 0.00 0.00 0.00 0.00 0.00 0.00 0.00 0.00 0.00 0.00 0.00 0.00 0.00 0.00 0.00 0.00 0.00 0.00 0.00 0.00 0.00 0.00 0.00 0.01
0.00 0.00 0.00 0.00 0.00 0.00 0.00 0.00 0.00 0.00 0.00 0.00 0.00 0.00 0.00 0.00 0.00 0.00 0.00 0.00 0.00 0.00 0.00 0.00 0.00 0.00 0.00 0.00 0.00 0.00 0.00 0.00 0.00 0.00 0.00 0.00 0.00 0.00 0.00 0.00 0.00 0.00 0.00
0.00 0.00 0.00 0.00 0.00 0.00 0.00 0.00 0.00 0.00 0.00 0.00 0.00 0.00 0.00 0.00 0.00 0.00 0.00 0.00 0.00 0.00 0.00 0.00 0.00 0.00 0.00 0.00 0.00 0.00 0.00 0.00 0.00 0.00 0.00 0.00 0.00 0.00 0.00 0.00 0.00 0.00 0.00
0.00 0.00 0.00 0.00 0.00 0.00 0.00 0.00 0.00 0.00 0.00 0.00 0.00 0.00 0.00 0.00 0.00 0.00 0.00 0.00 0.00 0.00 0.00 0.00 0.00 0.00 0.00 0.00 0.00 0.00 0.00 0.00 0.00 0.00 0.00 0.00 0.00 0.00 0.00 0.00 0.00 0.00 0.00
0.00 0.00 0.00 0.00 0.00 0.00 0.00 0.00 0.00 0.00 0.00 0.00 0.00 0.00 0.00 0.00 0.00 0.00 0.00 0.00 0.00 0.00 0.00 0.00 0.00 0.00 0.00 0.00 0.00 0.00 0.00 0.00 0.00 0.00 0.00 0.00 0.00 0.00 0.00 0.00 0.00 0.00 0.00
0.00 0.00 0.00 0.00 0.00 0.00 0.00 0.00 0.00 0.00 0.00 0.00 0.00 0.00 0.00 0.00 0.00 0.00 0.00 0.00 0.00 0.00 0.00 0.00 0.00 0.00 0.00 0.00 0.00 0.00 0.00 0.00 0.00 0.00 0.00 0.00 0.00 0.00 0.00 0.00 0.00 0.00 0.00
0.00 0.00 0.00 0.00 0.00 0.00 0.00 0.00 0.00 0.00 0.00 0.00 0.00 0.00 0.00 0.00 0.00 0.00 0.00 0.00 0.00 0.00 0.00 0.00 0.00 0.00 0.00 0.00 0.00 0.00 0.00 0.00 0.00 0.00 0.00 0.00 0.00 0.00 0.00 0.00 0.00 0.00 0.00
0.00 0.00 0.00 0.00 0.00 0.00 0.00 0.00 0.00 0.00 0.00 0.00 0.00 0.00 0.00 0.00 0.00 0.00 0.00 0.00 0.00 0.00 0.00 0.00 0.00 0.00 0.00 0.00 0.00 0.00 0.00 0.00 0.00 0.00 0.00 0.00 0.00 0.00 0.00 0.00 0.00 0.00 0.00
0.00 0.00 0.00 0.00 0.00 0.00 0.00 0.00 0.00 0.00 0.00 0.00 0.00 0.00 0.00 0.00 0.00 0.00 0.00 0.00 0.00 0.00 0.00 0.00 0.00 0.00 0.00 0.00 0.00 0.00 0.00 0.00 0.00 0.00 0.00 0.00 0.00 0.00 0.00 0.00 0.00 0.00 0.00
0.00 0.00 0.00 0.00 0.00 0.00 0.00 0.00 0.00 0.00 0.00 0.00 0.00 0.00 0.00 0.00 0.00 0.00 0.00 0.00 0.00 0.00 0.00 0.00 0.00 0.00 0.00 0.00 0.00 0.00 0.00 0.00 0.00 0.00 0.00 0.00 0.00 0.00 0.00 0.00 0.00 0.00 0.00
0.00 0.00 0.00 0.00 0.00 0.00 0.00 0.00 0.00 0.00 0.00 0.00 0.00 0.00 0.00 0.00 0.00 0.00 0.00 0.00 0.00 0.00 0.00 0.00 0.00 0.00 0.00 0.00 0.00 0.00 0.00 0.00 0.00 0.00 0.00 0.00 0.00 0.00 0.00 0.00 0.00 0.00 0.00
0.00 0.00 0.00 0.00 0.00 0.00 0.00 0.00 0.00 0.00 0.00 0.00 0.00 0.00 0.00 0.00 0.00 0.00 0.00 0.00 0.00 0.00 0.00 0.00 0.00 0.00 0.00 0.00 0.00 0.00 0.00 0.00 0.00 0.00 0.00 0.00 0.00 0.00 0.00 0.00 0.00 0.00 0.00
0.00 0.00 0.00 0.00 0.00 0.00 0.00 0.00 0.00 0.00 0.00 0.00 0.00 0.00 0.00 0.00 0.00 0.00 0.00 0.00 0.00 0.00 0.00 0.00 0.00 0.00 0.00 0.00 0.00 0.00 0.00 0.00 0.00 0.00 0.00 0.00 0.00 0.00 0.00 0.00 0.00 0.00 0.00
0.00 0.00 0.00 0.00 0.00 0.00 0.00 0.00 0.00 0.00 0.00 0.00 0.00 0.00 0.00 0.00 0.00 0.00 0.00 0.00 0.00 0.00 0.00 0.00 0.00 0.00 0.00 0.00 0.00 0.00 0.00 0.00 0.00 0.00 0.00 0.00 0.00 0.00 0.00 0.00 0.00 0.00 0.00
0.01 0.01 0.00 0.00 0.00 0.00 0.00 0.00 0.00 0.00 0.00 0.00 0.00 0.00 0.00 0.00 0.00 0.00 0.00 0.00 0.00 0.00 0.00 0.00 0.00 0.00 0.00 0.00 0.00 0.00 0.00 0.00 0.00 0.00 0.00 0.00 0.00 0.00 0.00 0.00 0.00 0.00 0.00
0.01 0.01 0.01 0.01 0.00 0.00 0.00 0.00 0.00 0.01 0.01 0.01 0.01 0.01 0.00 0.00 0.00 0.00 0.00 0.01 0.01 0.00 0.00 0.00 0.00 0.00 0.00 0.00 0.00 0.00 0.00 0.00 0.00 0.00 0.00 0.00 0.00 0.00 0.00 0.00 0.00 0.00 0.00
MSLP
1012.55 1012.84 1013.12 1013.37 1013.57 1013.75 1013.94 1014.17 1014.47 1014.84 1015.26 1015.70 1016.12 1016.49 1016.79 1017.03 1017.21 1017.37 1017.53 1017.72 1017.95 1018.21 1018.50 1018.79 1019.06 1019.29 1019.49 1019.66 1019.82 1019.96 1020.10 1020.22 1020.32 1020.38 1020.38 1020.31 1020.17 1019.97 1019.75 1019.54 1019.38 1019.30 1019.31
1012.24 1012.54 1012.83 1013.09 1013.31 1013.51 1013.72 1013.97 1014.29 1014.68 1015.12 1015.58 1016.02 1016.40 1016.72 1016.96 1017.15 1017.31 1017.48 1017.67 1017.90 1018.17 1018.45 1018.74 1018.99 1019.22 1019.41 1019.56 1019.70 1019.84 1019.98 1020.11 1020.23 1020.31 1020.33 1020.27 1020.14 1019.95 1019.73 1019.53 1019.38 1019.32 1019.37
1011.82 1012.15 1012.47 1012.77 1013.02 1013.26 1013.50 1013.78 1014.12 1014.53 1014.98 1015.45 1015.90 1016.30 1016.62 1016.89 1017.09 1017.28 1017.47 1017.68 1017.92 1018.19 1018.48 1018.75 1018.99 1019.19 1019.35 1019.47 1019.59 1019.71 1019.84 1019.98 1020.11 1020.21 1020.25 1020.22 1020.11 1019.94 1019.74 1019.55 1019.43 1019.42 1019.52
1011.33 1011.69 1012.06 1012.41 1012.72 1013.00 1013.28 1013.59 1013.95 1014.37 1014.82 1015.29 1015.74 1016.15 1016.50 1016.79 1017.03 1017.26 1017.49 1017.74 1018.01 1018.30 1018.59 1018.85 1019.06 1019.22 1019.34 1019.43 1019.51 1019.60 1019.72 1019.85 1019.99 1020.10 1020.16 1020.15 1020.07 1019.92 1019.75 1019.60 1019.52 1019.55 1019.72
1010.78 1011.20 1011.63 1012.04 1012.41 1012.75 1013.07 1013.41 1013.78 1014.20 1014.65 1015.12 1015.57 1015.98 1016.35 1016.68 1016.98 1017.26 1017.55 1017.86 1018.17 1018.49 1018.78 1019.03 1019.21 1019.34 1019.41 1019.45 1019.49 1019.55 1019.64 1019.76 1019.90 1020.02 1020.09 1020.10 1020.03 1019.91 1019.76 1019.65 1019.61 1019.70 1019.92
1010.26 1010.74 1011.24 1011.71 1012.14 1012.53 1012.90 1013.26 1013.65 1014.06 1014.50 1014.95 1015.40 1015.82 1016.22 1016.59 1016.95 1017.30 1017.66 1018.03 1018.40 1018.74 1019.05 1019.29 1019.45 1019.54 1019.57 1019.56 1019.56 1019.58 1019.64 1019.74 1019.86 1019.98 1020.05 1020.07 1020.02 1019.92 1019.80 1019.71 1019.71 1019.83 1020.10
1009.84 1010.37 1010.93 1011.46 1011.95 1012.38 1012.79 1013.17 1013.57 1013.98 1014.40 1014.84 1015.29 1015.72 1016.15 1016.56 1016.98 1017.40 1017.83 1018.26 1018.68 1019.06 1019.38 1019.61 1019.75 1019.81 1019.79 1019.75 1019.70 1019.68 1019.71 1019.79 1019.90 1020.00 1020.08 1020.10 1020.06 1019.97 1019.86 1019.79 1019.81 1019.95 1020.24
1009.59 1010.16 1010.75 1011.33 1011.86 1012.33 1012.76 1013.17 1013.57 1013.98 1014.40 1014.83 1015.28 1015.72 1016.17 1016.63 1017.09 1017.57 1018.05 1018.54 1018.99 1019.40 1019.73 1019.95 1020.08 1020.11 1020.06 1019.98 1019.91 1019.86 1019.87 1019.92 1020.01 1020.11 1020.18 1020.20 1020.16 1020.07 1019.98 1019.92 1019.94 1020.09 1020.38
1009.55 1010.13 1010.74 1011.33 1011.88 1012.38 1012.83 1013.25 1013.67 1014.08 1014.51 1014.95 1015.40 1015.86 1016.32 1016.81 1017.30 1017.81 1018.33 1018.83 1019.31 1019.72 1020.05 1020.27 1020.38 1020.40 1020.34 1020.24 1020.15 1020.09 1020.08 1020.12 1020.20 1020.29 1020.35 1020.38 1020.34 1020.26 1020.18 1020.12 1020.14 1020.28 1020.55
1009.70 1010.27 1010.86 1011.45 1011.99 1012.50 1012.97 1013.41 1013.84 1014.28 1014.72 1015.18 1015.64 1016.11 1016.59 1017.09 1017.59 1018.11 1018.63 1019.13 1019.60 1020.00 1020.32 1020.53 1020.63 1020.64 1020.58 1020.49 1020.40 1020.34 1020.33 1020.38 1020.46 1020.55 1020.62 1020.64 1020.62 1020.55 1020.47 1020.41 1020.42 1020.54 1020.78
1009.99 1010.51 1011.06 1011.61 1012.14 1012.64 1013.12 1013.58 1014.05 1014.52 1015.00 1015.49 1015.97 1016.46 1016.95 1017.43 1017.93 1018.42 1018.91 1019.39 1019.82 1020.19 1020.49 1020.69 1020.79 1020.81 1020.77 1020.70 1020.64 1020.61 1020.62 1020.68 1020.78 1020.88 1020.96 1021.00 1020.99 1020.94 1020.86 1020.81 1020.81 1020.91 1021.11
1010.29 1010.75 1011.24 1011.74 1012.23 1012.72 1013.21 1013.70 1014.21 1014.74 1015.27 1015.80 1016.32 1016.82 1017.31 1017.79 1018.26 1018.71 1019.16 1019.58 1019.97 1020.31 1020.58 1020.77 1020.88 1020.92 1020.92 1020.90 1020.88 1020.89 1020.94 1021.03 1021.14 1021.26 1021.36 1021.42 1021.43 1021.40 1021.35 1021.30 1021.30 1021.37 1021.54
1010.51 1010.90 1011.31 1011.74 1012.19 1012.66 1013.16 1013.70 1014.26 1014.85 1015.44 1016.03 1016.59 1017.13 1017.63 1018.09 1018.53 1018.94 1019.34 1019.71 1020.05 1020.35 1020.60 1020.79 1020.92 1021.01 1021.06 1021.09 1021.13 1021.19 1021.29 1021.42 1021.56 1021.70 1021.82 1021.90 1021.93 1021.92 1021.88 1021.85 1021.85 1021.91 1022.05
1010.55 1010.85 1011.18 1011.55 1011.96 1012.42 1012.93 1013.51 1014.13 1014.79 1015.46 1016.11 1016.74 1017.31 1017.83 1018.29 1018.71 1019.09 1019.44 1019.77 1020.08 1020.35 1020.60 1020.80 1020.97 1021.10 1021.21 1021.31 1021.41 1021.53 1021.67 1021.83 1022.00 1022.16 1022.29 1022.38 1022.43 1022.45 1022.43 1022.42 1022.42 1022.47 1022.59
1010.36 1010.59 1010.85 1011.15 1011.53 1011.98 1012.52 1013.14 1013.82 1014.55 1015.30 1016.02 1016.71 1017.33 1017.88 1018.36 1018.78 1019.15 1019.49 1019.80 1020.09 1020.36 1020.62 1020.85 1021.05 1021.24 1021.41 1021.57 1021.73 1021.90 1022.08 1022.26 1022.44 1022.61 1022.74 1022.85 1022.91 1022.93 1022.94 1022.94 1022.96 1023.01 1023.12
1009.98 1010.13 1010.33 1010.59 1010.94 1011.39 1011.95 1012.61 1013.36 1014.16 1014.97 1015.77 1016.51 1017.19 1017.79 1018.31 1018.76 1019.14 1019.49 1019.81 1020.11 1020.41 1020.68 1020.95 1021.20 1021.43 1021.65 1021.86 1022.07 1022.27 1022.47 1022.67 1022.85 1023.01 1023.14 1023.24 1023.31 1023.34 1023.36 1023.38 1023.41 1023.48 1023.59
1009.47 1009.56 1009.72 1009.95 1010.29 1010.74 1011.33 1012.02 1012.82 1013.67 1014.54 1015.39 1016.20 1016.94 1017.59 1018.16 1018.66 1019.09 1019.48 1019.83 1020.17 1020.50 1020.81 1021.11 1021.39 1021.67 1021.92 1022.16 1022.39 1022.61 1022.82 1023.01 1023.18 1023.33 1023.45 1023.54 1023.61 1023.65 1023.67 1023.70 1023.75 1023.83 1023.95
1008.94 1009.01 1009.13 1009.36 1009.69 1010.16 1010.76 1011.49 1012.30 1013.18 1014.09 1014.98 1015.84 1016.62 1017.33 1017.96 1018.52 1019.02 1019.46 1019.87 1020.26 1020.62 1020.97 1021.30 1021.60 1021.89 1022.16 1022.41 1022.64 1022.86 1023.06 1023.24 1023.40 1023.54 1023.64 1023.73 1023.79 1023.83 1023.87 1023.91 1023.98 1024.07 1024.21
1008.53 1008.58 1008.71 1008.93 1009.28 1009.76 1010.37 1011.10 1011.93 1012.81 1013.72 1014.63 1015.50 1016.32 1017.07 1017.76 1018.38 1018.94 1019.45 1019.91 1020.35 1020.75 1021.12 1021.46 1021.77 1022.05 1022.31 1022.55 1022.77 1022.97 1023.16 1023.33 1023.48 1023.61 1023.71 1023.80 1023.86 1023.92 1023.97 1024.02 1024.10 1024.21 1024.36
1008.33 1008.38 1008.52 1008.77 1009.13 1009.62 1010.24 1010.95 1011.76 1012.62 1013.50 1014.39 1015.25 1016.07 1016.85 1017.57 1018.24 1018.85 1019.41 1019.93 1020.40 1020.82 1021.20 1021.54 1021.83 1022.09 1022.32 1022.54 1022.73 1022.92 1023.10 1023.26 1023.42 1023.56 1023.68 1023.78 1023.86 1023.93 1024.00 1024.07 1024.16 1024.28 1024.43
1008.38 1008.45 1008.62 1008.89 1009.27 1009.77 1010.37 1011.06 1011.82 1012.63 1013.46 1014.29 1015.11 1015.91 1016.68 1017.42 1018.11 1018.75 1019.35 1019.89 1020.38 1020.80 1021.17 1021.48 1021.74 1021.97 1022.17 1022.35 1022.53 1022.70 1022.88 1023.06 1023.24 1023.41 1023.56 1023.70 1023.81 1023.90 1023.99 1024.08 1024.18 1024.30 1024.45
1008.67 1008.77 1008.97 1009.27 1009.68 1010.18 1010.76 1011.40 1012.10 1012.83 1013.58 1014.33 1015.09 1015.83 1016.57 1017.28 1017.97 1018.62 1019.22 1019.77 1020.25 1020.66 1021.00 1021.28 1021.50 1021.69 1021.85 1022.01 1022.17 1022.35 1022.55 1022.76 1022.98 1023.20 1023.40 1023.58 1023.73 1023.86 1023.97 1024.07 1024.17 1024.29 1024.43
1009.14 1009.28 1009.52 1009.85 1010.27 1010.76 1011.31 1011.91 1012.53 1013.17 1013.82 1014.47 1015.14 1015.81 1016.48 1017.15 1017.80 1018.43 1019.02 1019.55 1020.01 1020.39 1020.70 1020.93 1021.12 1021.26 1021.40 1021.54 1021.71 1021.90 1022.14 1022.40 1022.67 1022.95 1023.21 1023.44 1023.64 1023.80 1023.93 1024.04 1024.15 1024.26 1024.38
1009.70 1009.89 1010.16 1010.52 1010.95 1011.43 1011.94 1012.47 1013.01 1013.55 1014.10 1014.65 1015.21 1015.79 1016.39 1016.99 1017.60 1018.19 1018.74 1019.24 1019.66 1020.01 1020.28 1020.48 1020.63 1020.75 1020.88 1021.02 1021.20 1021.42 1021.70 1022.01 1022.34 1022.67 1022.99 1023.28 1023.51 1023.71 1023.86 1023.97 1024.07 1024.18 1024.29
1010.29 1010.51 1010.81 1011.19 1011.62 1012.08 1012.55 1013.01 1013.46 1013.91 1014.35 1014.79 1015.26 1015.74 1016.26 1016.79 1017.34 1017.88 1018.39 1018.85 1019.24 1019.55 1019.79 1019.97 1020.10 1020.21 1020.33 1020.48 1020.68 1020.94 1021.25 1021.61 1021.99 1022.37 1022.73 1023.06 1023.32 1023.54 1023.70 1023.82 1023.91 1024.01 1024.11
1010.84 1011.09 1011.42 1011.80 1012.21 1012.64 1013.05 1013.45 1013.82 1014.18 1014.52 1014.87 1015.24 1015.64 1016.08 1016.55 1017.03 1017.52 1017.99 1018.41 1018.77 1019.06 1019.27 1019.43 1019.56 1019.67 1019.79 1019.96 1020.18 1020.46 1020.80 1021.19 1021.60 1022.01 1022.39 1022.73 1023.02 1023.24 1023.40 1023.52 1023.62 1023.71 1023.81
Thickness
5667 5672 5675 5677 5679 5680 5681 5683 5683 5684 5685 5683 5681 5680 5679 5679 5679 5678 5677 5676 5674 5674 5673 5672 5671 5670 5668 5666 5665 5663 5661 5660 5659 5656 5655 5657 5659 5658 5656 5653 5649 5644 5640
5657 5662 5666 5669 5671 5673 5674 5676 5677 5677 5678 5677 5677 5676 5674 5673 5672 5671 5669 5668 5667 5666 5665 5664 5663 5662 5661 5659 5658 5656 5653 5652 5651 5647 5644 5644 5647 5650 5650 5646 5641 5636 5631
5651 5654 5657 5661 5663 5665 5667 5669 5670 5670 5671 5670 5669 5668 5665 5664 5663 5662 5660 5659 5658 5657 5656 5656 5655 5654 5652 5650 5650 5648 5646 5643 5643 5641 5636 5632 5631 5634 5637 5635 5631 5626 5621
5649 5650 5652 5654 5655 5658 5660 5661 5662 5662 5662 5662 5661 5658 5656 5655 5655 5654 5653 5651 5650 5649 5648 5646 5645 5644 5643 5642 5641 5640 5638 5635 5633 5632 5631 5629 5626 5621 5620 5620 5618 5614 5609
5644 5646 5647 5648 5649 5649 5650 5651 5651 5652 5653 5653 5653 5651 5649 5648 5647 5646 5644 5642 5641 5639 5638 5637 5635 5634 5633 5632 5631 5629 5628 5626 5625 5623 5622 5620 5618 5615 5610 5607 5604 5600 5595
5638 5640 5640 5641 5640 5639 5639 5640 5640 5641 5642 5643 5643 5642 5640 5639 5637 5635 5634 5632 5631 5630 5628 5626 5625 5624 5623 5621 5620 5619 5618 5617 5616 5614 5612 5610 5607 5605 5602 5599 5597 5591 5583
5630 5631 5630 5630 5630 5629 5628 5629 5630 5630 5631 5632 5632 5631 5630 5628 5626 5625 5624 5622 5620 5618 5616 5615 5613 5612 5611 5610 5609 5608 5607 5606 5605 5603 5602 5599 5597 5594 5592 5590 5587 5583 5575
5622 5623 5623 5622 5621 5620 5619 5619 5619 5619 5619 5620 5620 5620 5619 5617 5615 5613 5612 5610 5608 5606 5604 5602 5601 5600 5599 5599 5598 5597 5595 5594 5593 5592 5590 5587 5585 5583 5581 5579 5576 5573 5567
5614 5615 5614 5613 5612 5611 5610 5610 5609 5608 5608 5608 5608 5607 5606 5604 5602 5601 5599 5597 5595 5594 5592 5590 5589 5588 5587 5586 5586 5584 5583 5582 5581 5579 5577 5575 5573 5571 5569 5567 5565 5563 5560
5605 5606 5605 5604 5603 5602 5601 5600 5599 5598 5597 5597 5596 5595 5593 5592 5590 5588 5586 5584 5582 5581 5579 5577 5576 5575 5574 5574 5573 5572 5571 5569 5568 5566 5565 5563 5561 5558 5556 5555 5553 5551 5549
5595 5595 5594 5594 5593 5592 5591 5590 5589 5588 5586 5585 5583 5582 5580 5578 5577 5575 5573 5571 5569 5568 5566 5565 5564 5563 5562 5561 5561 5559 5558 5557 5555 5554 5552 5550 5548 5546 5544 5543 5541 5539 5537
5586 5586 5585 5584 5582 5581 5580 5579 5579 5577 5576 5574 5572 5570 5568 5565 5563 5561 5560 5558 5557 5555 5554 5552 5551 5550 5549 5548 5548 5546 5545 5544 5542 5541 5539 5537 5536 5534 5532 5530 5529 5526 5525
5577 5576 5575 5574 5573 5571 5571 5570 5568 5567 5565 5564 5561 5559 5557 5554 5552 5549 5548 5546 5544 5542 5541 5540 5538 5537 5536 5535 5534 5533 5532 5531 5529 5527 5526 5524 5523 5520 5519 5518 5516 5514 5514
5568 5568 5567 5566 5565 5564 5563 5562 5560 5558 5556 5554 5551 5549 5546 5544 5541 5539 5536 5534 5532 5530 5529 5527 5525 5524 5523 5521 5520 5520 5518 5516 5515 5513 5512 5510 5509 5508 5506 5505 5504 5503 5501
5562 5562 5560 5559 5558 5557 5556 5554 5552 5549 5547 5544 5542 5539 5537 5534 5531 5528 5525 5522 5520 5519 5517 5515 5513 5511 5510 5508 5507 5506 5504 5502 5500 5499 5498 5497 5496 5496 5495 5494 5492 5492 5489
5555 5556 5555 5554 5553 5552 5550 5547 5544 5541 5539 5535 5532 5530 5526 5523 5520 5517 5514 5511 5509 5507 5505 5503 5501 5499 5498 5496 5495 5493 5491 5489 5488 5486 5485 5484 5484 5484 5483 5483 5482 5481 5478
5548 5549 5550 5549 5549 5548 5546 5542 5538 5534 5531 5527 5524 5521 5517 5513 5510 5507 5504 5501 5499 5496 5494 5492 5490 5488 5486 5485 5483 5481 5479 5478 5476 5475 5474 5474 5473 5472 5471 5471 5470 5469 5468
5541 5542 5543 5544 5544 5543 5541 5536 5532 5527 5523 5519 5516 5512 5509 5505 5501 5497 5494 5491 5489 5486 5483 5481 5479 5477 5475 5474 5473 5471 5468 5467 5466 5465 5464 5463 5462 5462 5461 5460 5458 5457 5456
5531 5533 5535 5536 5536 5535 5533 5529 5524 5519 5515 5512 5508 5505 5501 5497 5492 5488 5485 5482 5479 5476 5473 5471 5470 5467 5466 5465 5463 5461 5459 5457 5456 5456 5455 5455 5453 5453 5452 5450 5448 5446 5445
5520 5523 5525 5527 5526 5525 5524 5520 5515 5511 5508 5505 5502 5498 5494 5489 5485 5481 5477 5474 5470 5467 5464 5462 5460 5459 5457 5456 5454 5452 5450 5448 5447 5446 5446 5446 5445 5445 5443 5441 5439 5437 5435
5511 5513 5515 5515 5515 5515 5514 5510 5507 5504 5502 5498 5494 5489 5485 5481 5477 5473 5469 5466 5462 5459 5456 5454 5452 5451 5449 5448 5447 5445 5443 5442 5440 5439 5438 5438 5438 5436 5435 5433 5431 5430 5428
5501 5502 5501 5502 5503 5504 5503 5500 5497 5495 5492 5489 5485 5480 5477 5473 5469 5465 5461 5458 5455 5452 5449 5446 5444 5443 5443 5442 5440 5439 5437 5436 5434 5432 5431 5431 5430 5429 5427 5426 5424 5423 5421
5489 5489 5489 5489 5490 5491 5491 5489 5487 5485 5482 5479 5475 5472 5469 5465 5462 5458 5454 5451 5448 5446 5443 5441 5438 5436 5436 5435 5435 5434 5432 5431 5428 5427 5426 5425 5423 5421 5420 5419 5417 5415 5412
5479 5479 5479 5479 5479 5480 5480 5479 5478 5476 5473 5470 5467 5464 5461 5457 5454 5451 5449 5446 5444 5441 5439 5436 5434 5432 5430 5429 5428 5428 5427 5425 5423 5420 5419 5418 5417 5414 5413 5411 5410 5407 5404
5469 5470 5470 5470 5470 5470 5470 5470 5469 5467 5464 5462 5459 5457 5454 5451 5448 5446 5444 5442 5441 5439 5436 5433 5431 5428 5426 5427 5426 5423 5421 5419 5417 5414 5412 5410 5408 5406 5405 5403 5402 5400 5397
5461 5461 5461 5461 5461 5461 5461 5460 5459 5458 5456 5454 5452 5450 5447 5444 5442 5439 5437 5436 5435 5434 5433 5431 5428 5426 5425 5424 5422 5420 5418 5415 5413 5410 5406 5404 5403 5401 5400 5398 5396 5394 5391